Regional Weather Roundup
Issued by NWS

Current Version | Previous Version | Text Only | Print | Product List | Glossary On
Versions: 1 2 3 4 5 6 7 8 9 10 11 12 13 14 15 16 17 18 19 20 21 22 23 24 25 26 27 28 29 30 31 32 33 34 35 36 37 38 39 40 41 42 43 44 45 46 47 48 49 50
000
ASUS42 KFFC 301210
RWRGA
WEATHER ROUNDUP FOR GEORGIA
NATIONAL WEATHER SERVICE PEACHTREE CITY GA
800 AM EDT FRI SEP 30 2022

NOTE: "FAIR" INDICATES FEW OR NO CLOUDS BELOW 12,000 FEET WITH NO
SIGNIFICANT WEATHER AND/OR OBSTRUCTIONS TO VISIBILITY.

* = USE WITH CAUTION. THE STATIONS MARKED WITH AN ASTERISK MAY NOT
REPORT WEATHER SUCH AS PRECIPITATION, FOG, OR THUNDER AND ARE NOT
QUALITY CONTROLLED BY NWS.

THE REMARK "TC" DENOTES TEMPERATURE READING IN DEGREES CELSIUS.

GAZ001>058-301300-
NORTH GEORGIA

CITY           SKY/WX    TMP DP  RH WIND       PRES   REMARKS
ATLANTA        MOCLDY    62  44  51 NE14      29.99F
6HR MIN TEMP:  62; 6HR MAX TEMP:  63;

ATHENS         CLOUDY    60  45  57 NE9       29.97S
6HR MIN TEMP:  59; 6HR MAX TEMP:  63;

CHAMBLEE       CLOUDY    59  42  53 N9        30.00S
6HR MIN TEMP:  57; 6HR MAX TEMP:  60;

PEACHTREE CITY CLOUDY    62  44  51 N7        29.99S
6HR MIN TEMP:  61; 6HR MAX TEMP:  63;

ROME           CLOUDY    56  49  77 NW7       30.04S
6HR MIN TEMP:  48; 6HR MAX TEMP:  56;

WEST ATLANTA   MOCLDY    59  43  55 N8        30.00S
6HR MIN TEMP:  59; 6HR MAX TEMP:  62;

GAINESVILLE    CLOUDY    58  42  55 NE8       30.01F
6HR MIN TEMP:  54; 6HR MAX TEMP:  59;

CARTERSVILLE   CLOUDY    54  50  87 CALM      30.05S


CITY           SKY/WX    TMP DP  RH WIND       PRES   REMARKS
DALTON*        PTCLDY    52  48  86 N9        30.06F
LAWRENCEVILLE* PTCLDY    56  43  61 CALM      30.00S
MARIETTA       MOCLDY    58  40  51 N5        30.00S
KENNESAW*      CLOUDY    57  46  66 NW6       30.03S
CANTON*        CLOUDY    55  42  61 N7        30.03F
BLAIRSVILLE*   PTCLDY    38  38  99 CALM      30.08S
$$

GAZ059>098-102>109-301300-
CENTRAL GEORGIA

CITY           SKY/WX    TMP DP  RH WIND       PRES   REMARKS
AUGUSTA-BUSH   CLOUDY    63  49  60 N18G24    29.86F
6HR MIN TEMP:  63; 6HR MAX TEMP:  64;

AUGUSTA-DANIEL CLOUDY    62  48  60 N16G25    29.89S
6HR MIN TEMP:  62; 6HR MAX TEMP:  64;

COLUMBUS       CLOUDY    61  48  62 N5        29.96R
6HR MIN TEMP:  59; 6HR MAX TEMP:  63;

MACON          CLOUDY    63  49  60 N14G23    29.93R
6HR MIN TEMP:  63; 6HR MAX TEMP:  67;

ROBINS AFB     CLOUDY    62  49  63 N10       29.91R


CITY           SKY/WX    TMP DP  RH WIND       PRES   REMARKS
LAGRANGE*      CLEAR     56  44  63 N5        29.99S
SYLVANIA*      CLOUDY    62  54  75 N16G23    29.79F
$$

GAZ099>101-110>166-301300-
SOUTH GEORGIA

CITY           SKY/WX    TMP DP  RH WIND       PRES   REMARKS
SAVANNAH       LGT RAIN  60  55  83 N21G35    29.69F
6HR MIN TEMP:  58; 6HR MAX TEMP:  60; 6HR PCP: TRACE;

VALDOSTA       CLEAR     63  52  67 N10       29.85R
6HR MIN TEMP:  62; 6HR MAX TEMP:  66;

ALMA           CLOUDY    65  51  60 N10G25    29.81R
6HR MIN TEMP:  64; 6HR MAX TEMP:  66;

ST SIMONS      CLOUDY    64  55  72 NW17G26   29.69S
6HR MIN TEMP:  62; 6HR MAX TEMP:  64;

FT STEWART     CLOUDY    62  53  73 NW17G29   29.70F
ALBANY         CLOUDY    63  48  58 N6        29.92R
HUNTER AFB     LGT RAIN  61  57  88 N20G29    29.64F
MOODY AFB      PTCLDY    62  50  65 N12       29.83R
BRUNSWICK      CLOUDY    63  55  77 NW10G18   29.71S


CITY           SKY/WX    TMP DP  RH WIND       PRES   REMARKS
BAINBRIDGE*    CLEAR     58  49  71 N8        29.91R
MOULTRIE*      CLEAR     59  50  72 N5        29.89R
VIDALIA*       CLOUDY    64  52  63 N15G25    29.82S
WAYCROSS*      CLOUDY    64  52  64 N15       29.80S
DOUGLAS*       CLOUDY    64  50  61 N14       29.86R
$$



USA.gov is the U.S. government's official web portal to all federal, state and local government web resources and services.